This is the latest recevied weather packets stored in our database for station/object JS2QVS-13. If no packets are shown the sender has not sent any weather packets the latest 10 day(s).
| Time | Temp. | Humidity | Pressure | Rain* | Wind** | Luminosity | Snow |
|---|---|---|---|---|---|---|---|
| 1777851463 | 18.89° C | 86% | 998.9 hPa | 0 mm | - | - | - |
| 1777850862 | 18.89° C | 86% | 998.9 hPa | 0 mm | - | - | - |
| 1777850262 | 18.89° C | 86% | 998.8 hPa | 0 mm | - | - | - |
| 1777849662 | 18.89° C | 86% | 998.8 hPa | 0 mm | - | - | - |
| 1777849062 | 18.89° C | 87% | 998.9 hPa | 0 mm | - | - | - |
| 1777848462 | 18.89° C | 88% | 998.5 hPa | 0 mm | - | - | - |
| 1777847862 | 18.89° C | 87% | 998.1 hPa | 0 mm | - | - | - |
| 1777847262 | 18.89° C | 88% | 998.1 hPa | 0 mm | - | - | - |
| 1777846662 | 18.89° C | 88% | 998 hPa | 0 mm | - | - | - |
| 1777846061 | 18.89° C | 88% | 997.8 hPa | 0 mm | - | - | - |
| 1777845461 | 18.89° C | 88% | 997.4 hPa | 0 mm | - | - | - |
| 1777844261 | 18.89° C | 88% | 997.6 hPa | 0 mm | - | - | - |
| 1777843661 | 18.89° C | 87% | 997.2 hPa | 0 mm | - | - | - |
| 1777843061 | 19.44° C | 87% | 997.2 hPa | 0 mm | - | - | - |
| 1777842463 | 20° C | 87% | 997 hPa | 0 mm | - | - | - |
| 1777841863 | 20° C | 88% | 997.2 hPa | 0 mm | - | - | - |
| 1777840663 | 20° C | 91% | 996.9 hPa | 0.25 mm | - | - | - |
| 1777840062 | 20.56° C | 92% | 996.7 hPa | 1.27 mm | - | - | - |
| 1777839462 | 20° C | 92% | 996.9 hPa | 2.54 mm | - | - | - |
| 1777838862 | 20° C | 93% | 996.9 hPa | 3.05 mm | - | - | - |
| 1777838262 | 20.56° C | 93% | 996.6 hPa | 3.81 mm | - | - | - |
| 1777837662 | 20.56° C | 93% | 996.4 hPa | 5.08 mm | - | - | - |
| 1777837062 | 20.56° C | 93% | 996.3 hPa | 6.86 mm | - | - | - |
| 1777836461 | 20.56° C | 92% | 996.2 hPa | 6.6 mm | - | - | - |
| 1777835861 | 20.56° C | 92% | 996.3 hPa | 5.33 mm | - | - | - |
* Rain latest hour (hover to see other rain measurements)
** Current wind speed in m/s (hover to see current wind gust speed)